Temp
89 86 83 84 84 85 83 82 78 78 82 81 78 75 76 81 82 79 79 75 75 76 78 79 79 78 81 82 81 80 80 79 83 84 84 84 83 84 85 85 82 78 77 75
84 82 86 86 85 85 84 80 77 78 80 80 77 74 77 78 78 79 78 77 76 76 77 78 79 80 79 79 80 79 78 78 79 83 81 81 82 83 83 84 81 81 80 79
84 85 86 85 84 82 82 79 78 77 78 82 78 71 73 77 78 79 78 78 78 77 76 77 77 78 80 78 79 78 78 77 77 78 81 80 81 82 82 81 82 80 80 80
86 87 85 84 81 84 77 84 82 78 77 72 79 67 71 75 73 76 77 76 77 76 77 79 79 77 78 79 80 79 78 77 79 77 78 74 76 75 78 80 81 78 79 79
81 83 83 81 80 84 78 83 82 80 78 75 74 71 70 76 71 74 76 76 77 78 79 79 79 80 82 83 82 80 79 77 77 77 75 76 73 76 78 78 75 76 78 78
85 89 88 86 84 86 85 81 80 79 78 68 71 72 70 74 73 74 77 79 78 80 80 80 82 83 83 85 84 81 78 76 76 76 75 73 71 71 72 73 74 77 78 79
82 83 88 88 83 85 84 78 69 66 67 66 72 71 69 74 77 78 78 79 80 82 81 81 82 83 83 83 82 82 78 75 75 75 74 73 71 70 69 70 72 70 73 75
75 71 82 85 84 81 80 78 70 57 64 68 72 66 69 76 78 80 80 80 80 80 82 82 82 82 82 81 80 81 79 77 76 75 73 73 71 72 71 67 64 63 62 64
75 73 84 84 86 85 78 78 80 70 71 67 72 71 74 77 76 77 77 77 76 78 79 79 80 78 78 78 79 79 78 77 75 73 72 71 70 67 64 60 57 57 57 56
78 70 80 82 85 85 81 82 72 75 59 57 67 65 68 68 70 73 74 74 75 77 77 76 76 77 80 80 80 78 77 75 74 73 72 70 67 66 63 61 57 54 53 53
83 77 76 81 77 76 80 79 74 73 70 61 60 64 69 67 69 70 73 75 76 73 77 77 78 80 80 80 80 76 75 74 71 70 69 65 64 61 59 59 57 55 52 51
76 76 74 73 79 82 80 74 73 67 64 71 65 62 71 71 72 73 74 76 76 76 78 79 80 79 77 76 76 75 72 70 70 68 63 60 58 55 53 53 56 55 52 52
78 70 66 67 74 78 73 74 74 71 70 62 61 61 70 71 71 73 73 74 75 75 76 77 77 75 74 74 69 71 70 67 67 65 60 58 58 54 50 55 57 58 55 52
73 69 66 65 66 74 67 71 73 71 67 65 62 64 66 69 69 72 72 73 74 74 74 74 74 72 71 71 70 69 65 65 65 60 62 56 53 51 49 53 58 58 59 59
76 65 70 71 73 73 70 69 70 67 67 62 63 64 66 69 69 71 73 72 71 71 72 71 68 69 68 69 68 67 63 63 57 60 60 54 51 51 50 53 57 58 58 58
73 65 70 66 71 72 67 69 69 68 68 66 65 64 70 71 73 71 70 70 68 69 69 69 69 67 67 65 66 60 62 55 59 63 62 56 52 53 53 55 57 58 56 54
71 67 67 60 69 68 63 64 66 67 69 67 63 65 70 68 67 68 67 67 66 67 65 65 65 60 62 65 62 56 56 55 60 63 61 55 53 53 52 57 57 55 51 51
69 69 71 64 64 55 64 71 70 66 67 69 68 67 69 68 69 71 69 66 63 62 63 61 62 63 64 64 60 55 54 55 63 61 58 53 51 51 50 56 53 52 52 50
77 72 65 63 64 62 63 67 67 64 63 67 66 67 68 70 71 66 67 65 59 60 63 62 62 65 64 62 58 53 54 63 62 59 57 51 51 51 56 52 52 52 52 52
74 74 71 67 59 54 64 69 72 71 60 67 67 65 65 67 61 63 62 60 59 60 57 59 60 65 64 60 55 55 62 61 58 58 58 53 53 54 52 52 52 51 53 52
68 69 65 63 62 62 68 69 72 58 56 66 66 65 64 61 61 62 59 59 58 60 60 65 66 65 59 56 58 62 61 58 56 60 59 56 56 54 54 53 51 49 49 49
67 65 65 65 61 54 69 70 63 64 67 67 66 65 63 64 63 59 55 57 60 61 63 63 64 56 62 63 65 61 58 58 57 59 58 57 54 55 56 52 52 51 50 49
65 67 67 63 63 66 70 67 69 70 67 66 65 64 63 62 58 53 54 58 59 61 62 64 62 57 62 64 64 60 58 58 55 58 55 54 54 55 56 54 51 49 51 52
68 70 70 65 64 67 67 69 70 70 67 66 66 64 63 59 57 57 59 58 62 65 63 61 59 62 63 64 63 62 60 59 56 56 55 55 55 55 56 57 55 49 50 50
73 71 67 63 67 67 68 69 68 67 67 66 65 64 63 63 58 59 57 60 65 62 61 59 62 65 64 65 63 62 60 58 55 53 56 57 57 57 57 58 58 54 49 44
74 69 71 68 69 70 67 69 69 66 64 64 64 62 62 63 59 62 59 62 65 60 63 65 66 65 65 65 61 59 59 58 56 56 57 58 58 59 57 57 56 44 45 43
MSLP
1005.25 1004.21 1003.07 1003.54 1003.76 1003.48 1003.57 1003.83 1004.98 1006.52 1007.23 1007.32 1008.36 1009.62 1010.68 1011.24 1011.80 1012.42 1013.18 1014.08 1014.57 1015.18 1015.26 1015.83 1016.07 1015.90 1015.40 1015.24 1015.18 1015.03 1014.56 1014.12 1013.50 1013.06 1012.69 1012.29 1012.06 1011.85 1011.61 1011.33 1011.48 1011.62 1011.41 1011.05
1004.64 1003.49 1004.11 1004.33 1004.13 1003.79 1003.76 1004.22 1005.52 1006.91 1007.55 1007.71 1008.69 1009.67 1010.67 1011.37 1012.10 1012.71 1013.30 1013.95 1014.62 1015.23 1015.55 1015.96 1016.04 1016.08 1015.92 1015.74 1015.51 1015.40 1015.24 1014.89 1014.39 1013.81 1013.65 1013.45 1012.91 1012.34 1012.08 1011.51 1011.36 1010.95 1010.65 1010.24
1003.08 1003.98 1004.61 1004.26 1004.15 1003.96 1004.02 1004.10 1005.30 1005.79 1007.32 1007.69 1008.36 1009.24 1010.31 1011.39 1012.20 1012.94 1013.63 1014.12 1014.51 1014.97 1015.44 1015.80 1016.10 1016.13 1015.97 1015.92 1015.79 1015.73 1015.57 1015.36 1015.23 1014.79 1014.06 1013.68 1012.99 1012.27 1011.59 1011.27 1010.71 1010.59 1010.35 1009.80
1003.59 1004.39 1004.19 1003.94 1003.98 1004.19 1004.02 1004.75 1005.14 1005.97 1006.26 1006.07 1007.74 1007.34 1009.28 1010.60 1011.78 1012.46 1013.25 1014.01 1014.60 1015.21 1015.51 1015.48 1015.62 1016.01 1016.12 1016.00 1016.05 1016.04 1015.85 1015.63 1015.14 1014.98 1014.25 1013.97 1013.12 1012.30 1011.91 1011.05 1010.72 1010.78 1010.01 1009.45
1004.08 1004.07 1003.97 1003.79 1004.51 1004.54 1004.79 1005.26 1005.33 1005.67 1005.71 1006.28 1006.98 1007.27 1008.40 1009.94 1011.06 1011.96 1012.97 1013.83 1014.45 1015.03 1015.00 1015.24 1015.51 1015.61 1015.44 1015.26 1015.23 1015.55 1015.57 1015.57 1015.30 1014.99 1014.81 1014.27 1013.77 1013.04 1012.20 1011.48 1010.82 1010.15 1009.42 1009.28
1004.11 1004.69 1004.33 1004.34 1004.92 1004.79 1005.35 1005.46 1005.68 1005.95 1005.60 1005.42 1006.56 1007.21 1007.37 1008.71 1010.17 1011.52 1012.23 1013.17 1014.10 1014.37 1014.74 1015.16 1015.20 1015.05 1015.15 1015.21 1015.08 1015.18 1015.38 1015.43 1015.36 1015.11 1014.84 1014.56 1014.11 1013.57 1012.72 1011.89 1011.04 1009.84 1009.62 1008.99
1004.19 1004.30 1004.72 1004.89 1004.58 1005.18 1005.01 1004.96 1004.44 1004.65 1004.79 1004.97 1007.11 1007.47 1008.73 1009.98 1010.82 1011.31 1011.78 1012.80 1013.67 1014.01 1014.41 1014.54 1014.68 1014.68 1014.78 1014.91 1015.13 1015.09 1015.43 1015.32 1015.37 1015.29 1015.09 1014.88 1014.68 1014.21 1013.49 1012.79 1011.79 1011.16 1010.00 1009.27
1003.78 1004.45 1004.75 1005.07 1004.61 1004.27 1004.83 1004.89 1004.60 1004.73 1004.62 1005.13 1007.26 1007.23 1009.44 1010.84 1011.56 1011.91 1012.62 1013.33 1013.89 1014.30 1014.41 1014.52 1014.75 1015.10 1015.01 1015.00 1015.03 1015.03 1014.94 1014.87 1015.14 1015.21 1015.16 1014.98 1014.84 1014.28 1013.79 1013.80 1013.85 1013.19 1012.55 1011.65
1004.42 1004.74 1005.59 1005.66 1005.35 1005.40 1005.07 1005.09 1006.20 1005.94 1006.06 1006.16 1006.58 1008.65 1010.27 1011.13 1011.92 1012.57 1013.13 1013.89 1014.40 1014.78 1014.95 1015.09 1015.42 1015.70 1015.47 1015.15 1015.10 1015.12 1015.21 1015.31 1015.38 1015.40 1015.26 1015.05 1014.92 1014.90 1014.92 1014.92 1014.94 1014.31 1013.72 1013.00
1005.45 1005.43 1005.81 1006.06 1005.91 1005.96 1005.75 1006.51 1006.20 1005.83 1006.10 1006.40 1006.81 1008.69 1009.62 1011.72 1012.53 1013.19 1013.66 1014.31 1014.99 1015.25 1015.60 1015.88 1015.93 1015.81 1015.56 1015.52 1015.45 1015.75 1016.04 1016.05 1016.05 1015.98 1015.91 1015.83 1015.86 1015.88 1015.74 1015.59 1015.39 1015.07 1014.45 1013.63
1006.15 1006.01 1006.15 1006.23 1006.24 1006.04 1006.05 1006.07 1007.10 1007.44 1007.65 1007.72 1008.01 1009.81 1012.60 1013.26 1013.85 1014.11 1014.43 1014.84 1015.35 1015.86 1015.72 1016.01 1015.98 1015.74 1015.97 1016.11 1016.08 1016.45 1016.51 1016.53 1016.70 1016.73 1016.70 1016.90 1016.87 1016.84 1016.73 1016.15 1015.88 1015.62 1014.98 1014.21
1007.82 1007.15 1006.35 1007.00 1007.93 1007.67 1007.56 1007.87 1007.97 1007.83 1008.00 1008.58 1009.90 1011.83 1013.88 1014.36 1014.64 1014.87 1014.94 1015.44 1015.89 1016.21 1016.13 1015.91 1016.10 1016.30 1016.59 1016.68 1016.78 1016.60 1017.35 1017.29 1017.34 1017.41 1017.85 1017.87 1017.86 1017.71 1017.45 1017.04 1016.28 1016.08 1015.58 1015.07
1008.47 1008.39 1007.71 1008.17 1008.43 1008.37 1008.61 1009.11 1009.37 1009.52 1009.61 1009.68 1010.47 1012.22 1014.53 1015.09 1015.22 1015.49 1015.77 1016.17 1016.27 1016.67 1016.48 1016.51 1016.81 1017.01 1017.22 1017.17 1017.98 1017.88 1017.94 1018.18 1018.16 1017.86 1018.18 1018.32 1018.22 1018.28 1018.13 1017.47 1016.74 1016.06 1015.85 1015.62
1009.37 1009.28 1008.65 1008.06 1008.64 1008.80 1009.66 1009.89 1010.08 1009.94 1009.80 1010.40 1011.97 1012.84 1014.37 1015.11 1015.41 1015.74 1016.26 1016.69 1016.78 1016.94 1017.08 1017.20 1017.34 1017.57 1018.07 1018.39 1018.37 1018.36 1018.58 1018.73 1018.81 1018.87 1018.30 1018.75 1019.02 1018.98 1018.74 1017.96 1016.92 1016.44 1015.90 1015.27
1009.71 1009.87 1009.62 1009.78 1009.90 1010.25 1010.69 1010.96 1011.05 1011.24 1011.71 1011.87 1013.05 1013.64 1014.85 1015.53 1016.04 1016.44 1016.66 1017.07 1017.25 1017.42 1017.66 1017.81 1018.35 1018.73 1018.85 1018.70 1018.86 1019.07 1019.30 1019.55 1019.80 1019.09 1018.79 1019.42 1019.71 1019.59 1019.23 1018.31 1017.43 1016.88 1016.36 1015.95
1010.43 1010.48 1010.34 1010.59 1010.84 1011.02 1011.56 1012.00 1012.32 1012.63 1012.90 1013.31 1013.83 1014.42 1015.95 1016.38 1016.71 1016.97 1017.27 1017.75 1018.08 1018.23 1018.37 1018.59 1018.96 1019.54 1019.54 1019.56 1019.45 1020.24 1020.29 1020.60 1020.23 1019.27 1019.01 1019.71 1019.99 1019.70 1019.22 1018.60 1017.86 1017.39 1017.16 1016.83
1010.21 1010.60 1010.33 1010.78 1011.26 1011.53 1011.93 1013.18 1013.36 1013.61 1014.11 1014.39 1014.40 1015.88 1016.47 1016.80 1017.31 1017.62 1018.33 1018.83 1019.12 1019.20 1019.52 1019.86 1020.15 1020.59 1020.32 1020.04 1020.51 1021.02 1021.29 1021.29 1020.22 1019.67 1019.61 1020.23 1020.20 1019.99 1019.85 1018.75 1018.26 1018.14 1017.98 1017.65
1010.35 1010.41 1010.44 1010.86 1011.77 1011.66 1013.52 1014.22 1014.46 1014.61 1015.23 1015.62 1016.11 1016.83 1017.23 1017.60 1017.96 1018.02 1019.44 1020.01 1020.48 1020.93 1020.94 1021.15 1021.11 1020.87 1020.71 1020.71 1021.27 1021.66 1021.80 1021.45 1020.49 1020.34 1020.67 1021.01 1020.95 1020.78 1020.47 1019.21 1019.06 1018.77 1018.43 1018.15
1010.55 1010.49 1010.69 1010.72 1011.15 1013.11 1013.96 1014.45 1014.82 1015.13 1015.73 1016.89 1017.30 1017.69 1018.02 1018.30 1018.04 1019.02 1020.42 1021.19 1021.80 1021.80 1021.63 1021.66 1021.65 1021.12 1020.95 1021.20 1021.82 1021.97 1021.94 1021.19 1021.06 1021.17 1021.21 1021.68 1021.56 1021.07 1020.19 1020.06 1019.72 1019.35 1019.00 1018.64
1011.01 1010.94 1010.62 1011.09 1011.39 1012.25 1013.84 1014.99 1015.65 1015.75 1016.07 1017.86 1018.28 1018.68 1018.93 1018.94 1018.60 1019.69 1021.60 1022.30 1022.53 1022.56 1022.83 1022.39 1022.23 1021.41 1021.16 1021.71 1022.22 1022.19 1021.51 1021.64 1021.83 1021.71 1021.55 1022.00 1021.84 1021.43 1021.10 1020.73 1020.41 1020.19 1019.67 1019.14
1010.80 1010.83 1010.91 1011.61 1012.25 1013.92 1015.05 1015.72 1015.99 1015.93 1018.15 1018.63 1019.26 1019.70 1019.98 1020.28 1021.27 1021.94 1022.76 1023.21 1023.32 1023.05 1022.77 1022.02 1021.62 1021.47 1022.00 1022.41 1022.31 1021.75 1022.12 1022.35 1022.77 1022.18 1022.03 1022.11 1021.94 1021.82 1021.57 1021.36 1021.20 1020.90 1020.45 1019.99
1010.92 1011.11 1011.76 1012.57 1013.07 1014.69 1016.00 1015.99 1016.33 1017.99 1018.80 1019.39 1019.94 1020.60 1020.98 1021.39 1022.00 1022.94 1023.79 1023.47 1023.06 1022.73 1022.50 1022.23 1021.81 1022.60 1022.32 1022.13 1021.75 1022.29 1022.67 1023.22 1023.28 1022.62 1022.49 1022.50 1022.54 1022.20 1021.98 1021.84 1021.52 1021.20 1020.78 1020.39
1011.86 1012.45 1012.59 1014.07 1014.64 1016.32 1016.92 1017.38 1018.30 1018.73 1019.31 1020.12 1020.64 1021.40 1021.76 1022.10 1023.10 1023.80 1023.86 1023.44 1023.17 1022.93 1022.72 1022.62 1022.46 1022.98 1022.56 1022.23 1022.21 1022.72 1023.30 1023.58 1023.82 1023.08 1023.01 1023.00 1022.89 1022.58 1022.25 1022.04 1022.06 1021.80 1021.34 1020.72
1012.73 1013.39 1013.41 1014.60 1016.15 1016.73 1017.65 1018.46 1019.04 1019.59 1020.28 1020.96 1021.50 1021.93 1022.28 1022.88 1023.51 1023.62 1023.57 1023.51 1022.80 1022.67 1022.82 1023.08 1023.14 1022.54 1022.42 1022.59 1022.93 1023.23 1023.66 1023.81 1023.98 1023.53 1023.27 1023.21 1023.06 1022.65 1022.41 1022.34 1022.45 1022.62 1022.39 1021.87
1012.54 1013.45 1014.02 1015.33 1016.25 1017.23 1017.98 1018.72 1019.60 1020.34 1020.95 1021.44 1022.12 1022.43 1022.70 1022.89 1023.48 1023.57 1023.74 1023.21 1022.81 1022.99 1023.27 1023.32 1022.90 1022.46 1022.63 1022.86 1023.16 1023.49 1023.88 1024.00 1024.17 1024.11 1023.43 1023.03 1023.04 1022.85 1022.52 1022.77 1022.91 1023.04 1023.31 1023.30
1013.01 1013.59 1013.55 1014.01 1015.73 1016.40 1017.90 1019.21 1019.96 1020.64 1021.36 1021.93 1022.15 1022.69 1023.34 1023.34 1023.78 1023.44 1023.78 1023.25 1022.84 1023.30 1023.31 1022.71 1022.59 1022.67 1022.80 1022.89 1023.26 1023.70 1024.01 1024.22 1024.16 1024.02 1023.63 1023.58 1023.02 1022.73 1022.87 1022.76 1023.00 1023.52 1023.33 1023.25
Wind_Speed
5 10 5 8 4 5 3 8 12 12 9 9 13 13 11 10 13 14 14 14 14 13 13 11 10 10 12 12 12 13 14 14 11 10 10 9 10 8 9 7 8 10 11 12
8 3 6 5 4 8 8 12 13 8 6 8 13 12 10 9 10 12 12 12 11 10 9 8 8 8 9 10 11 12 12 12 11 9 9 9 9 8 8 8 10 11 13 13
1 10 7 7 9 8 6 2 10 11 9 8 10 11 11 10 10 11 10 9 8 7 6 6 6 7 8 9 10 10 10 10 10 12 9 9 10 10 11 11 11 12 15 13
7 6 4 5 4 7 9 2 3 11 12 5 12 1 11 13 9 6 9 8 7 5 3 4 4 4 6 7 6 8 9 9 9 10 11 13 11 13 12 12 11 12 15 14
8 5 6 5 6 5 7 2 4 8 8 6 12 10 13 11 10 10 8 8 6 5 3 5 5 5 4 7 7 8 9 9 10 11 11 11 13 12 13 14 16 14 10 14
8 2 2 8 5 3 9 8 6 4 5 11 6 8 13 8 5 8 8 9 7 5 5 4 1 4 8 10 10 10 11 10 10 11 12 13 14 15 14 16 16 15 14 12
8 6 6 2 10 7 6 8 8 7 7 4 3 8 12 7 5 3 4 10 6 2 5 3 8 10 10 12 12 10 9 10 10 12 13 14 15 16 17 17 16 20 16 13
10 12 2 2 7 5 5 7 8 5 3 5 5 2 10 6 5 4 7 6 4 4 8 9 12 14 15 15 14 14 13 12 12 13 14 13 15 12 13 16 14 13 14 15
7 6 6 7 0 6 6 2 4 7 6 9 5 7 7 6 7 5 7 5 7 10 10 15 16 15 14 15 16 16 15 15 16 18 16 17 17 18 15 14 12 10 13 13
3 6 1 5 2 8 5 5 6 3 6 9 6 3 9 8 7 6 6 7 8 11 13 12 12 13 14 15 14 12 12 14 14 15 15 16 17 17 16 14 15 14 12 13
1 5 8 7 5 8 5 4 2 5 5 7 6 9 6 7 7 6 7 8 12 10 11 12 10 11 15 15 13 10 12 15 16 15 15 16 15 15 15 14 14 15 12 13
4 4 1 9 6 5 10 6 4 6 3 1 7 7 6 6 6 6 7 10 10 13 12 12 15 16 15 11 10 11 13 13 14 14 11 10 11 11 12 13 14 15 15 15
1 2 6 8 8 4 6 6 3 2 5 6 8 8 4 3 3 6 9 11 11 10 12 14 15 13 11 12 13 15 14 14 12 13 10 8 10 11 12 13 14 14 12 13
2 3 5 6 9 7 7 6 4 4 5 6 9 4 4 1 5 7 8 10 11 12 13 14 13 12 12 12 12 14 13 13 14 12 13 9 10 10 10 13 14 15 15 15
3 6 10 12 13 12 10 10 11 12 8 8 7 7 8 8 9 9 11 11 13 14 15 13 13 14 14 14 15 15 13 13 11 11 11 9 9 8 10 11 14 14 15 14
1 6 11 10 8 10 12 10 9 8 6 5 2 8 6 5 10 12 13 13 15 15 15 13 14 14 16 14 16 13 11 10 10 12 11 10 8 9 10 14 12 14 15 15
4 8 8 7 8 3 9 8 7 5 7 8 8 9 9 10 11 13 12 13 16 15 14 15 14 12 11 13 12 8 8 8 8 12 15 11 8 11 12 11 14 14 13 12
9 7 2 7 7 4 8 4 4 4 6 7 6 8 10 11 12 7 12 15 16 15 14 12 9 11 13 12 10 8 6 7 12 14 13 12 11 12 10 13 14 11 10 10
3 5 4 5 2 9 6 3 3 7 6 7 8 9 10 13 13 16 16 16 14 15 13 8 9 12 11 11 9 6 4 10 13 13 12 11 9 9 12 13 13 12 11 11
7 2 5 3 4 3 8 4 4 5 7 7 8 9 12 14 9 12 16 14 13 12 11 10 10 10 12 11 7 3 10 11 13 12 11 8 9 11 12 11 13 11 11 11
5 4 4 4 4 6 5 3 4 7 8 6 8 9 11 11 9 11 13 13 10 11 7 8 8 9 12 8 4 10 11 12 10 11 11 10 9 11 11 11 10 10 9 10
1 2 3 2 3 6 4 4 6 7 6 5 6 9 9 9 10 12 9 8 8 6 7 10 10 11 7 5 8 10 10 9 9 9 10 11 9 7 8 10 10 11 10 9
4 5 4 8 6 7 9 12 8 6 7 7 7 8 8 10 11 8 5 8 8 8 8 8 9 8 5 5 9 9 9 7 7 9 10 9 8 8 9 10 11 10 11 11
4 2 4 8 7 9 9 8 8 8 7 7 6 7 7 10 8 7 7 6 6 9 10 9 9 6 7 8 9 7 8 6 7 8 9 7 8 7 7 9 8 8 9 8
4 8 8 7 8 8 7 8 9 8 6 6 7 8 8 8 8 9 7 5 10 9 9 7 5 7 7 7 7 6 7 5 6 5 7 7 7 6 7 8 9 7 6 5
5 5 4 6 12 2 13 10 9 7 6 6 6 8 8 8 8 7 7 5 9 9 7 6 7 7 6 6 7 6 6 3 4 3 7 5 6 5 6 5 6 6 5 6
Wind_Direction
191 228 196 46 19 56 135 148 115 117 80 103 118 122 120 120 110 107 102 90 83 74 76 63 55 42 51 51 49 39 42 32 18 16 6 1 355 347 334 322 311 296 284 289
204 127 76 105 122 138 142 133 116 112 147 144 143 127 131 128 110 104 103 100 100 94 77 69 66 61 51 46 39 36 33 33 24 18 9 358 340 333 319 320 319 313 317 305
235 90 128 145 138 146 151 136 178 128 155 152 154 156 152 139 135 122 106 107 108 97 103 90 64 51 52 45 34 34 30 27 25 358 6 354 337 337 339 333 323 346 318 317
97 114 179 172 138 268 175 206 183 153 193 212 215 309 181 163 160 151 151 130 129 125 143 120 97 58 40 25 43 30 36 18 33 17 3 349 343 338 331 323 330 320 321 322
97 139 164 119 32 278 65 154 205 193 236 235 179 259 111 162 169 147 154 143 136 160 127 78 57 48 65 31 45 44 40 28 22 11 1 346 347 335 331 329 332 312 311 318
99 119 327 70 64 73 130 127 143 226 230 233 103 283 137 154 145 138 158 137 150 151 133 88 72 64 36 30 28 42 20 24 10 360 358 352 343 336 333 330 319 325 326 321
161 130 112 206 137 152 231 202 210 206 204 29 111 251 51 85 80 14 124 126 144 117 77 38 25 10 20 21 22 10 18 2 6 359 354 350 347 333 336 329 331 326 321 325
189 168 196 345 337 23 39 323 2 309 313 52 145 304 87 60 55 88 75 88 67 36 30 20 28 12 9 6 11 356 352 360 7 359 354 354 347 343 332 353 337 336 338 334
204 102 116 44 200 306 120 303 15 294 195 261 76 118 145 87 69 70 67 49 38 31 22 19 20 14 2 1 358 352 357 1 3 358 356 353 354 353 356 356 351 341 342 336
84 137 154 124 240 65 339 88 249 232 306 314 126 260 56 25 19 29 39 39 33 24 22 22 11 8 359 352 341 9 358 5 358 355 356 359 355 359 2 3 6 359 353 347
10 282 137 207 5 4 173 179 38 289 311 326 306 77 22 39 40 41 33 26 32 7 3 12 350 358 354 352 3 11 3 2 360 353 3 354 1 1 0 4 6 6 345 359
46 334 88 74 94 38 52 37 352 319 29 81 280 83 42 44 52 24 17 29 9 360 9 348 358 0 358 7 1 11 6 358 357 354 9 359 8 4 5 355 3 16 3 6
114 39 163 160 169 131 53 44 60 348 258 59 308 77 69 54 22 26 11 8 359 355 3 353 355 3 5 8 4 357 1 9 352 3 21 24 16 13 8 3 359 8 13 15
50 61 342 3 66 70 92 56 38 310 300 348 58 53 102 11 343 2 4 354 348 346 356 356 351 14 18 357 350 357 14 8 16 6 18 32 26 12 0 348 3 8 8 14
52 98 99 90 95 95 82 67 58 61 40 15 46 33 36 19 358 348 344 354 338 349 349 360 8 8 356 356 354 9 13 26 8 343 32 26 27 14 8 356 8 12 19 22
117 132 121 109 122 106 86 69 75 64 29 76 321 82 27 20 350 350 343 352 349 346 345 8 6 2 2 346 359 17 24 12 347 14 20 34 27 21 356 13 10 24 25 26
148 150 192 123 143 152 118 41 48 84 48 346 19 23 3 359 348 342 10 356 348 352 0 357 7 2 339 342 27 10 36 360 336 12 27 19 30 22 16 360 25 24 23 21
146 156 201 128 183 206 85 65 37 36 46 39 32 6 1 355 338 21 29 360 359 349 350 357 347 344 339 15 47 52 19 316 22 26 27 23 33 26 12 21 25 20 24 23
156 192 123 195 124 113 165 142 6 347 85 36 1 360 352 343 311 95 20 5 355 345 343 355 346 338 3 27 75 68 344 35 29 25 29 31 32 18 26 26 19 20 24 24
108 172 257 185 158 141 78 97 347 283 148 35 7 4 351 341 342 14 11 8 358 7 22 360 353 323 15 46 83 67 47 38 33 17 32 51 37 29 32 26 24 17 13 17
123 68 108 149 97 107 74 349 295 253 58 39 15 8 1 3 7 5 18 9 360 2 12 326 17 24 30 87 122 61 51 45 34 28 44 53 47 46 34 31 21 12 2 7
134 200 115 172 157 139 24 203 314 80 83 34 30 15 1 16 19 29 19 353 12 30 10 12 18 46 38 64 63 64 56 52 44 40 53 55 48 37 42 25 21 20 14 12
164 11 60 353 59 101 69 88 93 77 70 48 23 25 19 35 34 39 8 26 31 49 36 19 32 42 58 60 53 65 63 58 58 34 53 54 43 36 28 33 25 18 20 16
113 133 96 190 136 127 112 108 98 83 76 53 43 52 46 63 54 54 54 51 64 57 40 23 27 64 72 66 66 65 69 63 66 31 59 55 41 32 39 44 40 28 18 11
35 171 138 93 132 135 141 129 118 103 84 71 75 62 66 69 63 73 62 61 66 58 43 48 67 73 72 67 66 62 77 49 74 35 36 47 61 41 42 52 32 45 50 20
190 130 232 86 141 43 133 136 127 105 82 73 88 95 83 55 61 86 74 51 60 47 42 52 79 75 66 55 58 74 88 71 84 48 42 35 46 50 44 27 85 101 71 31